This is the latest recevied weather packets stored in our database for station/object AC5CM. If no packets are shown the sender has not sent any weather packets the latest 1 day(s).
| Time | Temp. | Humidity | Pressure | Rain* | Wind** | Luminosity | Snow |
|---|---|---|---|---|---|---|---|
| 1778020973 | 27.78° C | 77% | 1008 hPa | 0 mm | 1.79 m/s, 284° | - | - |
| 1778020671 | 27.78° C | 76% | 1008.1 hPa | 0 mm | 1.34 m/s, 130° | - | - |
| 1778020367 | 27.78° C | 76% | 1007.9 hPa | 0 mm | 0.89 m/s, 164° | - | - |
| 1778020063 | 28.33° C | 76% | 1008 hPa | 0 mm | 1.34 m/s, 310° | - | - |
| 1778019759 | 27.78° C | 76% | 1008.1 hPa | 0 mm | 2.68 m/s, 142° | - | - |
| 1778019456 | 28.33° C | 76% | 1008.1 hPa | 0 mm | 1.79 m/s, 146° | - | - |
| 1778019153 | 28.33° C | 75% | 1008.2 hPa | 0 mm | 2.68 m/s, 106° | - | - |
| 1778018850 | 28.33° C | 75% | 1008.3 hPa | 0 mm | 0 m/s | - | - |
| 1778018547 | 28.89° C | 73% | 1008.2 hPa | 0 mm | 2.24 m/s, 157° | - | - |
| 1778018245 | 28.33° C | 75% | 1008 hPa | 0 mm | 0.89 m/s, 167° | - | - |
| 1778017943 | 28.33° C | 75% | 1008.1 hPa | 0 mm | 1.79 m/s, 123° | - | - |
| 1778017640 | 28.33° C | 76% | 1008.3 hPa | 0 mm | 1.79 m/s, 130° | - | - |
| 1778017338 | 28.33° C | 76% | 1008.4 hPa | 0 mm | 0.89 m/s, 249° | - | - |
| 1778017035 | 28.33° C | 76% | 1008.6 hPa | 0 mm | 0.45 m/s, 331° | - | - |
| 1778016732 | 28.33° C | 76% | 1008.5 hPa | 0 mm | 1.79 m/s, 135° | - | - |
| 1778016428 | 28.33° C | 76% | 1008.6 hPa | 0 mm | 0.45 m/s, 5° | - | - |
| 1778016126 | 28.33° C | 76% | 1008.7 hPa | 0 mm | 0.89 m/s, 120° | - | - |
| 1778015822 | 27.78° C | 76% | 1008.6 hPa | 0 mm | 0.89 m/s, 161° | - | - |
| 1778015520 | 28.33° C | 75% | 1008.6 hPa | 0 mm | 1.79 m/s, 133° | - | - |
| 1778015216 | 28.33° C | 74% | 1008.7 hPa | 0 mm | 0.89 m/s, 274° | - | - |
| 1778014913 | 28.33° C | 74% | 1008.8 hPa | 0 mm | 0.89 m/s, 25° | - | - |
| 1778014610 | 28.89° C | 73% | 1009.1 hPa | 0 mm | 1.34 m/s, 244° | - | - |
| 1778014308 | 28.89° C | 72% | 1009.1 hPa | 0 mm | 0.45 m/s, 340° | - | - |
| 1778014005 | 28.89° C | 73% | 1009.1 hPa | 0 mm | 1.79 m/s, 148° | - | - |
| 1778013703 | 28.89° C | 73% | 1009.2 hPa | 0 mm | 0.45 m/s, 140° | - | - |
* Rain latest hour (hover to see other rain measurements)
** Current wind speed in m/s (hover to see current wind gust speed)